#datetime,building,power
2021-12-29T00:00:00,sdl,13.69
2021-12-29T00:01:00,sdl,14.90
2021-12-29T00:02:00,sdl,13.76
2021-12-29T00:03:00,sdl,13.76
2021-12-29T00:04:00,sdl,14.76
2021-12-29T00:05:00,sdl,15.08
2021-12-29T00:06:00,sdl,14.86
2021-12-29T00:07:00,sdl,14.50
2021-12-29T00:08:00,sdl,18.86
2021-12-29T00:09:00,sdl,17.08
2021-12-29T00:10:00,sdl,15.93
2021-12-29T00:11:00,sdl,15.52
2021-12-29T00:12:00,sdl,15.58
2021-12-29T00:13:00,sdl,15.56
2021-12-29T00:14:00,sdl,15.58
2021-12-29T00:15:00,sdl,15.55
2021-12-29T00:16:00,sdl,15.60
2021-12-29T00:17:00,sdl,16.07
2021-12-29T00:18:00,sdl,11.93
2021-12-29T00:19:00,sdl,12.88
2021-12-29T00:20:00,sdl,11.43
2021-12-29T00:21:00,sdl,12.39
2021-12-29T00:22:00,sdl,11.41
2021-12-29T00:23:00,sdl,11.73
2021-12-29T00:24:00,sdl,11.42
2021-12-29T00:25:00,sdl,10.97
2021-12-29T00:26:00,sdl,11.54
2021-12-29T00:27:00,sdl,11.45
2021-12-29T00:28:00,sdl,11.06
2021-12-29T00:29:00,sdl,10.97
2021-12-29T00:30:00,sdl,11.38
2021-12-29T00:31:00,sdl,11.42
2021-12-29T00:32:00,sdl,11.40
2021-12-29T00:33:00,sdl,11.36
2021-12-29T00:34:00,sdl,11.78
2021-12-29T00:35:00,sdl,11.27
2021-12-29T00:36:00,sdl,13.55
2021-12-29T00:37:00,sdl,13.19
2021-12-29T00:38:00,sdl,13.14
2021-12-29T00:39:00,sdl,13.12
2021-12-29T00:40:00,sdl,13.13
2021-12-29T00:41:00,sdl,13.77
2021-12-29T00:42:00,sdl,13.27
2021-12-29T00:43:00,sdl,13.63
2021-12-29T00:44:00,sdl,13.67
2021-12-29T00:45:00,sdl,13.64
2021-12-29T00:46:00,sdl,14.10
2021-12-29T00:47:00,sdl,13.51
2021-12-29T00:48:00,sdl,13.55
2021-12-29T00:49:00,sdl,13.47
2021-12-29T00:50:00,sdl,13.54
2021-12-29T00:51:00,sdl,10.82
2021-12-29T00:52:00,sdl,10.85
2021-12-29T00:53:00,sdl,11.16
2021-12-29T00:54:00,sdl,11.81
2021-12-29T00:55:00,sdl,11.40
2021-12-29T00:56:00,sdl,17.37
2021-12-29T00:57:00,sdl,15.87
2021-12-29T00:58:00,sdl,15.91
2021-12-29T00:59:00,sdl,15.89
2021-12-29T01:00:00,sdl,15.76
2021-12-29T01:01:00,sdl,15.78
2021-12-29T01:02:00,sdl,15.89
2021-12-29T01:03:00,sdl,16.24
2021-12-29T01:04:00,sdl,15.52
2021-12-29T01:05:00,sdl,15.49
2021-12-29T01:06:00,sdl,15.49
2021-12-29T01:07:00,sdl,12.72
2021-12-29T01:08:00,sdl,13.82
2021-12-29T01:09:00,sdl,14.14
2021-12-29T01:10:00,sdl,14.07
2021-12-29T01:11:00,sdl,14.30
2021-12-29T01:12:00,sdl,14.26
2021-12-29T01:13:00,sdl,14.11
2021-12-29T01:14:00,sdl,14.27
2021-12-29T01:15:00,sdl,14.27
2021-12-29T01:16:00,sdl,13.82
2021-12-29T01:17:00,sdl,11.46
2021-12-29T01:18:00,sdl,11.52
2021-12-29T01:19:00,sdl,11.52
2021-12-29T01:20:00,sdl,11.61
2021-12-29T01:21:00,sdl,11.56
2021-12-29T01:22:00,sdl,11.94
2021-12-29T01:23:00,sdl,11.96
2021-12-29T01:24:00,sdl,12.35
2021-12-29T01:25:00,sdl,12.41
2021-12-29T01:26:00,sdl,11.89
2021-12-29T01:27:00,sdl,11.92
2021-12-29T01:28:00,sdl,11.40
2021-12-29T01:29:00,sdl,11.51
2021-12-29T01:30:00,sdl,10.97
2021-12-29T01:31:00,sdl,10.96
2021-12-29T01:32:00,sdl,10.98
2021-12-29T01:33:00,sdl,11.09
2021-12-29T01:34:00,sdl,13.86
2021-12-29T01:35:00,sdl,13.87
2021-12-29T01:36:00,sdl,13.85
2021-12-29T01:37:00,sdl,13.74
2021-12-29T01:38:00,sdl,13.82
2021-12-29T01:39:00,sdl,13.73
2021-12-29T01:40:00,sdl,13.71
2021-12-29T01:41:00,sdl,13.71
2021-12-29T01:42:00,sdl,13.42
2021-12-29T01:43:00,sdl,14.64
2021-12-29T01:44:00,sdl,13.67
2021-12-29T01:45:00,sdl,13.39
2021-12-29T01:46:00,sdl,17.49
2021-12-29T01:47:00,sdl,17.52
2021-12-29T01:48:00,sdl,17.82
2021-12-29T01:49:00,sdl,17.75
2021-12-29T01:50:00,sdl,17.71
2021-12-29T01:51:00,sdl,17.74
2021-12-29T01:52:00,sdl,15.52
2021-12-29T01:53:00,sdl,15.90
2021-12-29T01:54:00,sdl,15.83
2021-12-29T01:55:00,sdl,15.05
2021-12-29T01:56:00,sdl,15.06
2021-12-29T01:57:00,sdl,10.98
2021-12-29T01:58:00,sdl,11.00
2021-12-29T01:59:00,sdl,11.02
2021-12-29T02:00:00,sdl,11.09
2021-12-29T02:01:00,sdl,11.46
2021-12-29T02:02:00,sdl,11.49
2021-12-29T02:03:00,sdl,11.34
2021-12-29T02:04:00,sdl,11.25
2021-12-29T02:05:00,sdl,11.93
2021-12-29T02:06:00,sdl,11.63
2021-12-29T02:07:00,sdl,11.74
2021-12-29T02:08:00,sdl,10.91
2021-12-29T02:09:00,sdl,11.43
2021-12-29T02:10:00,sdl,10.87
2021-12-29T02:11:00,sdl,10.87
2021-12-29T02:12:00,sdl,10.98
2021-12-29T02:13:00,sdl,10.94
2021-12-29T02:14:00,sdl,11.32
2021-12-29T02:15:00,sdl,11.29
2021-12-29T02:16:00,sdl,11.36
2021-12-29T02:17:00,sdl,11.20
2021-12-29T02:18:00,sdl,11.20
2021-12-29T02:19:00,sdl,11.40
2021-12-29T02:20:00,sdl,11.32
2021-12-29T02:21:00,sdl,11.13
2021-12-29T02:22:00,sdl,11.15
2021-12-29T02:23:00,sdl,13.80
2021-12-29T02:24:00,sdl,13.68
2021-12-29T02:25:00,sdl,13.36
2021-12-29T02:26:00,sdl,13.37
2021-12-29T02:27:00,sdl,13.75
2021-12-29T02:28:00,sdl,13.75
2021-12-29T02:29:00,sdl,13.59
2021-12-29T02:30:00,sdl,13.47
2021-12-29T02:31:00,sdl,13.52
2021-12-29T02:32:00,sdl,14.19
2021-12-29T02:33:00,sdl,14.18
2021-12-29T02:34:00,sdl,13.17
2021-12-29T02:35:00,sdl,13.15
2021-12-29T02:36:00,sdl,17.19
2021-12-29T02:37:00,sdl,17.21
2021-12-29T02:38:00,sdl,15.07
2021-12-29T02:39:00,sdl,15.04
2021-12-29T02:40:00,sdl,15.49
2021-12-29T02:41:00,sdl,15.42
2021-12-29T02:42:00,sdl,15.43
2021-12-29T02:43:00,sdl,15.33
2021-12-29T02:44:00,sdl,15.97
2021-12-29T02:45:00,sdl,15.94
2021-12-29T02:46:00,sdl,11.63
2021-12-29T02:47:00,sdl,11.61
2021-12-29T02:48:00,sdl,11.63
2021-12-29T02:49:00,sdl,11.61
2021-12-29T02:50:00,sdl,11.63
2021-12-29T02:51:00,sdl,13.94
2021-12-29T02:52:00,sdl,13.99
2021-12-29T02:53:00,sdl,15.32
2021-12-29T02:54:00,sdl,14.72
2021-12-29T02:55:00,sdl,14.32
2021-12-29T02:56:00,sdl,14.31
2021-12-29T02:57:00,sdl,14.25
2021-12-29T02:58:00,sdl,14.25
2021-12-29T02:59:00,sdl,14.26
2021-12-29T03:00:00,sdl,13.92
2021-12-29T03:01:00,sdl,13.90
2021-12-29T03:02:00,sdl,12.26
2021-12-29T03:03:00,sdl,11.68
2021-12-29T03:04:00,sdl,11.71
2021-12-29T03:05:00,sdl,11.63
2021-12-29T03:06:00,sdl,12.09
2021-12-29T03:07:00,sdl,12.06
2021-12-29T03:08:00,sdl,13.55
2021-12-29T03:09:00,sdl,12.04
2021-12-29T03:10:00,sdl,11.92
2021-12-29T03:11:00,sdl,11.26
2021-12-29T03:12:00,sdl,11.26
2021-12-29T03:13:00,sdl,10.96
2021-12-29T03:14:00,sdl,11.01
2021-12-29T03:15:00,sdl,10.96
2021-12-29T03:16:00,sdl,10.99
2021-12-29T03:17:00,sdl,11.00
2021-12-29T03:18:00,sdl,11.35
2021-12-29T03:19:00,sdl,11.32
2021-12-29T03:20:00,sdl,11.29
2021-12-29T03:21:00,sdl,11.30
2021-12-29T03:22:00,sdl,13.88
2021-12-29T03:23:00,sdl,14.56
2021-12-29T03:24:00,sdl,13.88
2021-12-29T03:25:00,sdl,13.53
2021-12-29T03:26:00,sdl,17.18
2021-12-29T03:27:00,sdl,17.75
2021-12-29T03:28:00,sdl,17.28
2021-12-29T03:29:00,sdl,17.21
2021-12-29T03:30:00,sdl,17.25
2021-12-29T03:31:00,sdl,17.29
2021-12-29T03:32:00,sdl,18.09
2021-12-29T03:33:00,sdl,17.87
2021-12-29T03:34:00,sdl,17.95
2021-12-29T03:35:00,sdl,18.09
2021-12-29T03:36:00,sdl,18.60
2021-12-29T03:37:00,sdl,14.03
2021-12-29T03:38:00,sdl,13.49
2021-12-29T03:39:00,sdl,13.53
2021-12-29T03:40:00,sdl,11.38
2021-12-29T03:41:00,sdl,11.47
2021-12-29T03:42:00,sdl,11.44
2021-12-29T03:43:00,sdl,11.50
2021-12-29T03:44:00,sdl,11.88
2021-12-29T03:45:00,sdl,11.80
2021-12-29T03:46:00,sdl,11.82
2021-12-29T03:47:00,sdl,11.83
2021-12-29T03:48:00,sdl,11.72
2021-12-29T03:49:00,sdl,11.57
2021-12-29T03:50:00,sdl,11.58
2021-12-29T03:51:00,sdl,12.39
2021-12-29T03:52:00,sdl,11.23
2021-12-29T03:53:00,sdl,11.62
2021-12-29T03:54:00,sdl,11.83
2021-12-29T03:55:00,sdl,11.41
2021-12-29T03:56:00,sdl,11.44
2021-12-29T03:57:00,sdl,11.54
2021-12-29T03:58:00,sdl,12.73
2021-12-29T03:59:00,sdl,11.43
2021-12-29T04:00:00,sdl,11.44
2021-12-29T04:01:00,sdl,11.43
2021-12-29T04:02:00,sdl,11.35
2021-12-29T04:03:00,sdl,11.37
2021-12-29T04:04:00,sdl,11.43
2021-12-29T04:05:00,sdl,11.39
2021-12-29T04:06:00,sdl,11.85
2021-12-29T04:07:00,sdl,11.87
2021-12-29T04:08:00,sdl,11.88
2021-12-29T04:09:00,sdl,12.60
2021-12-29T04:10:00,sdl,11.45
2021-12-29T04:11:00,sdl,13.74
2021-12-29T04:12:00,sdl,13.64
2021-12-29T04:13:00,sdl,13.68
2021-12-29T04:14:00,sdl,13.64
2021-12-29T04:15:00,sdl,13.54
2021-12-29T04:16:00,sdl,17.77
2021-12-29T04:17:00,sdl,17.23
2021-12-29T04:18:00,sdl,17.24
2021-12-29T04:19:00,sdl,17.29
2021-12-29T04:20:00,sdl,17.15
2021-12-29T04:21:00,sdl,17.70
2021-12-29T04:22:00,sdl,18.65
2021-12-29T04:23:00,sdl,18.14
2021-12-29T04:24:00,sdl,18.16
2021-12-29T04:25:00,sdl,18.32
2021-12-29T04:26:00,sdl,15.37
2021-12-29T04:27:00,sdl,11.33
2021-12-29T04:28:00,sdl,10.96
2021-12-29T04:29:00,sdl,10.91
2021-12-29T04:30:00,sdl,10.86
2021-12-29T04:31:00,sdl,10.88
2021-12-29T04:32:00,sdl,10.85
2021-12-29T04:33:00,sdl,10.82
2021-12-29T04:34:00,sdl,11.21
2021-12-29T04:35:00,sdl,11.33
2021-12-29T04:36:00,sdl,11.28
2021-12-29T04:37:00,sdl,11.25
2021-12-29T04:38:00,sdl,11.36
2021-12-29T04:39:00,sdl,14.05
2021-12-29T04:40:00,sdl,14.07
2021-12-29T04:41:00,sdl,13.59
2021-12-29T04:42:00,sdl,13.62
2021-12-29T04:43:00,sdl,13.81
2021-12-29T04:44:00,sdl,13.77
2021-12-29T04:45:00,sdl,13.75
2021-12-29T04:46:00,sdl,13.76
2021-12-29T04:47:00,sdl,14.13
2021-12-29T04:48:00,sdl,14.15
2021-12-29T04:49:00,sdl,14.18
2021-12-29T04:50:00,sdl,11.95
2021-12-29T04:51:00,sdl,12.00
2021-12-29T04:52:00,sdl,12.65
2021-12-29T04:53:00,sdl,11.86
2021-12-29T04:54:00,sdl,11.43
2021-12-29T04:55:00,sdl,11.41
2021-12-29T04:56:00,sdl,11.37
2021-12-29T04:57:00,sdl,11.33
2021-12-29T04:58:00,sdl,11.78
2021-12-29T04:59:00,sdl,11.39
2021-12-29T05:00:00,sdl,11.72
2021-12-29T05:01:00,sdl,12.21
2021-12-29T05:02:00,sdl,11.91
2021-12-29T05:03:00,sdl,12.06
2021-12-29T05:04:00,sdl,12.08
2021-12-29T05:05:00,sdl,12.06
2021-12-29T05:06:00,sdl,16.13
2021-12-29T05:07:00,sdl,15.58
2021-12-29T05:08:00,sdl,15.53
2021-12-29T05:09:00,sdl,15.48
2021-12-29T05:10:00,sdl,15.46
2021-12-29T05:11:00,sdl,17.80
2021-12-29T05:12:00,sdl,18.18
2021-12-29T05:13:00,sdl,18.23
2021-12-29T05:14:00,sdl,18.16
2021-12-29T05:15:00,sdl,18.22
2021-12-29T05:16:00,sdl,18.24
2021-12-29T05:17:00,sdl,14.02
2021-12-29T05:18:00,sdl,13.55
2021-12-29T05:19:00,sdl,13.22
2021-12-29T05:20:00,sdl,13.12
2021-12-29T05:21:00,sdl,13.55
2021-12-29T05:22:00,sdl,13.09
2021-12-29T05:23:00,sdl,13.05
2021-12-29T05:24:00,sdl,13.04
2021-12-29T05:25:00,sdl,13.83
2021-12-29T05:26:00,sdl,14.58
2021-12-29T05:27:00,sdl,13.91
2021-12-29T05:28:00,sdl,13.63
2021-12-29T05:29:00,sdl,11.34
2021-12-29T05:30:00,sdl,11.34
2021-12-29T05:31:00,sdl,11.33
2021-12-29T05:32:00,sdl,10.92
2021-12-29T05:33:00,sdl,10.77
2021-12-29T05:34:00,sdl,10.83
2021-12-29T05:35:00,sdl,10.86
2021-12-29T05:36:00,sdl,10.82
2021-12-29T05:37:00,sdl,11.37
2021-12-29T05:38:00,sdl,11.73
2021-12-29T05:39:00,sdl,12.07
2021-12-29T05:40:00,sdl,11.82
2021-12-29T05:41:00,sdl,11.80
2021-12-29T05:42:00,sdl,12.51
2021-12-29T05:43:00,sdl,11.94
2021-12-29T05:44:00,sdl,11.93
2021-12-29T05:45:00,sdl,11.63
2021-12-29T05:46:00,sdl,11.57
2021-12-29T05:47:00,sdl,11.53
2021-12-29T05:48:00,sdl,11.55
2021-12-29T05:49:00,sdl,11.34
2021-12-29T05:50:00,sdl,11.34
2021-12-29T05:51:00,sdl,11.80
2021-12-29T05:52:00,sdl,11.94
2021-12-29T05:53:00,sdl,11.87
2021-12-29T05:54:00,sdl,12.21
2021-12-29T05:55:00,sdl,12.18
2021-12-29T05:56:00,sdl,17.71
2021-12-29T05:57:00,sdl,15.94
2021-12-29T05:58:00,sdl,15.59
2021-12-29T05:59:00,sdl,17.76
2021-12-29T06:00:00,sdl,17.73
2021-12-29T06:01:00,sdl,17.90
2021-12-29T06:02:00,sdl,17.99
2021-12-29T06:03:00,sdl,17.95
2021-12-29T06:04:00,sdl,18.35
2021-12-29T06:05:00,sdl,18.36
2021-12-29T06:06:00,sdl,18.44
2021-12-29T06:07:00,sdl,14.38
2021-12-29T06:08:00,sdl,14.35
2021-12-29T06:09:00,sdl,13.84
2021-12-29T06:10:00,sdl,13.98
2021-12-29T06:11:00,sdl,13.64
2021-12-29T06:12:00,sdl,13.71
2021-12-29T06:13:00,sdl,11.46
2021-12-29T06:14:00,sdl,11.39
2021-12-29T06:15:00,sdl,12.51
2021-12-29T06:16:00,sdl,11.27
2021-12-29T06:17:00,sdl,11.68
2021-12-29T06:18:00,sdl,12.40
2021-12-29T06:19:00,sdl,12.93
2021-12-29T06:20:00,sdl,12.88
2021-12-29T06:21:00,sdl,13.32
2021-12-29T06:22:00,sdl,13.44
2021-12-29T06:23:00,sdl,13.01
2021-12-29T06:24:00,sdl,13.54
2021-12-29T06:25:00,sdl,13.01
2021-12-29T06:26:00,sdl,12.97
2021-12-29T06:27:00,sdl,13.83
2021-12-29T06:28:00,sdl,12.97
2021-12-29T06:29:00,sdl,16.58
2021-12-29T06:30:00,sdl,16.97
2021-12-29T06:31:00,sdl,16.95
2021-12-29T06:32:00,sdl,16.96
2021-12-29T06:33:00,sdl,16.92
2021-12-29T06:34:00,sdl,16.91
2021-12-29T06:35:00,sdl,16.88
2021-12-29T06:36:00,sdl,16.85
2021-12-29T06:37:00,sdl,16.44
2021-12-29T06:38:00,sdl,16.37
2021-12-29T06:39:00,sdl,14.11
2021-12-29T06:40:00,sdl,14.15
2021-12-29T06:41:00,sdl,14.10
2021-12-29T06:42:00,sdl,14.12
2021-12-29T06:43:00,sdl,15.23
2021-12-29T06:44:00,sdl,15.09
2021-12-29T06:45:00,sdl,14.55
2021-12-29T06:46:00,sdl,18.53
2021-12-29T06:47:00,sdl,18.46
2021-12-29T06:48:00,sdl,18.60
2021-12-29T06:49:00,sdl,18.62
2021-12-29T06:50:00,sdl,18.71
2021-12-29T06:51:00,sdl,18.48
2021-12-29T06:52:00,sdl,18.48
2021-12-29T06:53:00,sdl,18.08
2021-12-29T06:54:00,sdl,18.03
2021-12-29T06:55:00,sdl,20.77
2021-12-29T06:56:00,sdl,16.54
2021-12-29T06:57:00,sdl,16.56
2021-12-29T06:58:00,sdl,16.64
2021-12-29T06:59:00,sdl,16.50
2021-12-29T07:00:00,sdl,16.52
2021-12-29T07:01:00,sdl,16.66
2021-12-29T07:02:00,sdl,16.61
2021-12-29T07:03:00,sdl,16.26
2021-12-29T07:04:00,sdl,16.18
2021-12-29T07:05:00,sdl,16.20
2021-12-29T07:06:00,sdl,16.13
2021-12-29T07:07:00,sdl,16.73
2021-12-29T07:08:00,sdl,16.17
2021-12-29T07:09:00,sdl,17.26
2021-12-29T07:10:00,sdl,17.18
2021-12-29T07:11:00,sdl,17.28
2021-12-29T07:12:00,sdl,17.29
2021-12-29T07:13:00,sdl,15.10
2021-12-29T07:14:00,sdl,16.35
2021-12-29T07:15:00,sdl,16.47
2021-12-29T07:16:00,sdl,16.76
2021-12-29T07:17:00,sdl,16.71
2021-12-29T07:18:00,sdl,17.06
2021-12-29T07:19:00,sdl,16.99
2021-12-29T07:20:00,sdl,18.55
2021-12-29T07:21:00,sdl,18.61
2021-12-29T07:22:00,sdl,18.78
2021-12-29T07:23:00,sdl,19.03
2021-12-29T07:24:00,sdl,18.54
2021-12-29T07:25:00,sdl,18.97
2021-12-29T07:26:00,sdl,19.07
2021-12-29T07:27:00,sdl,18.50
2021-12-29T07:28:00,sdl,18.10
2021-12-29T07:29:00,sdl,15.90
2021-12-29T07:30:00,sdl,13.92
2021-12-29T07:31:00,sdl,13.85
2021-12-29T07:32:00,sdl,13.95
2021-12-29T07:33:00,sdl,13.90
2021-12-29T07:34:00,sdl,14.46
2021-12-29T07:35:00,sdl,14.38
2021-12-29T07:36:00,sdl,14.37
2021-12-29T07:37:00,sdl,14.40
2021-12-29T07:38:00,sdl,18.45
2021-12-29T07:39:00,sdl,18.51
2021-12-29T07:40:00,sdl,18.50
2021-12-29T07:41:00,sdl,20.50
2021-12-29T07:42:00,sdl,20.40
2021-12-29T07:43:00,sdl,20.41
2021-12-29T07:44:00,sdl,20.51
2021-12-29T07:45:00,sdl,20.43
2021-12-29T07:46:00,sdl,20.94
2021-12-29T07:47:00,sdl,18.63
2021-12-29T07:48:00,sdl,17.10
2021-12-29T07:49:00,sdl,16.60
2021-12-29T07:50:00,sdl,16.57
2021-12-29T07:51:00,sdl,16.97
2021-12-29T07:52:00,sdl,16.98
2021-12-29T07:53:00,sdl,16.31
2021-12-29T07:54:00,sdl,16.20
2021-12-29T07:55:00,sdl,16.12
2021-12-29T07:56:00,sdl,14.72
2021-12-29T07:57:00,sdl,14.26
2021-12-29T07:58:00,sdl,13.99
2021-12-29T07:59:00,sdl,14.15
2021-12-29T08:00:00,sdl,14.52
2021-12-29T08:01:00,sdl,14.48
2021-12-29T08:02:00,sdl,14.42
2021-12-29T08:03:00,sdl,14.43
2021-12-29T08:04:00,sdl,16.61
2021-12-29T08:05:00,sdl,14.50
2021-12-29T08:06:00,sdl,14.48
2021-12-29T08:07:00,sdl,14.13
2021-12-29T08:08:00,sdl,14.09
2021-12-29T08:09:00,sdl,16.32
2021-12-29T08:10:00,sdl,16.41
2021-12-29T08:11:00,sdl,25.24
2021-12-29T08:12:00,sdl,29.00
2021-12-29T08:13:00,sdl,17.30
2021-12-29T08:14:00,sdl,16.74
2021-12-29T08:15:00,sdl,16.91
2021-12-29T08:16:00,sdl,17.20
2021-12-29T08:17:00,sdl,17.69
2021-12-29T08:18:00,sdl,18.00
2021-12-29T08:19:00,sdl,16.86
2021-12-29T08:20:00,sdl,18.74
2021-12-29T08:21:00,sdl,16.29
2021-12-29T08:22:00,sdl,16.30
2021-12-29T08:23:00,sdl,16.66
2021-12-29T08:24:00,sdl,16.23
2021-12-29T08:25:00,sdl,16.32
2021-12-29T08:26:00,sdl,16.39
2021-12-29T08:27:00,sdl,16.43
2021-12-29T08:28:00,sdl,22.03
2021-12-29T08:29:00,sdl,21.09
2021-12-29T08:30:00,sdl,20.45
2021-12-29T08:31:00,sdl,20.47
2021-12-29T08:32:00,sdl,21.75
2021-12-29T08:33:00,sdl,20.40
2021-12-29T08:34:00,sdl,20.87
2021-12-29T08:35:00,sdl,20.84
2021-12-29T08:36:00,sdl,20.82
2021-12-29T08:37:00,sdl,20.84
2021-12-29T08:38:00,sdl,18.91
2021-12-29T08:39:00,sdl,19.01
2021-12-29T08:40:00,sdl,19.00
2021-12-29T08:41:00,sdl,19.10
2021-12-29T08:42:00,sdl,19.15
2021-12-29T08:43:00,sdl,19.07
2021-12-29T08:44:00,sdl,18.66
2021-12-29T08:45:00,sdl,18.61
2021-12-29T08:46:00,sdl,18.71
2021-12-29T08:47:00,sdl,18.62
2021-12-29T08:48:00,sdl,18.97
2021-12-29T08:49:00,sdl,19.36
2021-12-29T08:50:00,sdl,19.01
2021-12-29T08:51:00,sdl,18.96
2021-12-29T08:52:00,sdl,19.03
2021-12-29T08:53:00,sdl,19.69
2021-12-29T08:54:00,sdl,19.84
2021-12-29T08:55:00,sdl,19.44
2021-12-29T08:56:00,sdl,18.45
2021-12-29T08:57:00,sdl,16.33
2021-12-29T08:58:00,sdl,16.34
2021-12-29T08:59:00,sdl,16.34
2021-12-29T09:00:00,sdl,16.23
2021-12-29T09:01:00,sdl,16.34
2021-12-29T09:02:00,sdl,16.69
2021-12-29T09:03:00,sdl,17.78
2021-12-29T09:04:00,sdl,17.78
2021-12-29T09:05:00,sdl,17.76
2021-12-29T09:06:00,sdl,17.87
2021-12-29T09:07:00,sdl,17.84
2021-12-29T09:08:00,sdl,17.82
2021-12-29T09:09:00,sdl,17.40
2021-12-29T09:10:00,sdl,17.05
2021-12-29T09:11:00,sdl,14.75
2021-12-29T09:12:00,sdl,15.31
2021-12-29T09:13:00,sdl,15.01
2021-12-29T09:14:00,sdl,15.07
2021-12-29T09:15:00,sdl,15.31
2021-12-29T09:16:00,sdl,15.51
2021-12-29T09:17:00,sdl,15.86
2021-12-29T09:18:00,sdl,19.15
2021-12-29T09:19:00,sdl,19.62
2021-12-29T09:20:00,sdl,19.70
2021-12-29T09:21:00,sdl,20.14
2021-12-29T09:22:00,sdl,20.46
2021-12-29T09:23:00,sdl,20.43
2021-12-29T09:24:00,sdl,19.59
2021-12-29T09:25:00,sdl,22.49
2021-12-29T09:26:00,sdl,21.76
2021-12-29T09:27:00,sdl,17.67
2021-12-29T09:28:00,sdl,16.96
2021-12-29T09:29:00,sdl,16.86
2021-12-29T09:30:00,sdl,16.81
2021-12-29T09:31:00,sdl,19.00
2021-12-29T09:32:00,sdl,18.14
2021-12-29T09:33:00,sdl,18.83
2021-12-29T09:34:00,sdl,16.75
2021-12-29T09:35:00,sdl,18.31
2021-12-29T09:36:00,sdl,16.70
2021-12-29T09:37:00,sdl,19.03
2021-12-29T09:38:00,sdl,18.80
2021-12-29T09:39:00,sdl,16.71
2021-12-29T09:40:00,sdl,16.28
2021-12-29T09:41:00,sdl,14.91
2021-12-29T09:42:00,sdl,14.88
2021-12-29T09:43:00,sdl,14.92
2021-12-29T09:44:00,sdl,15.25
2021-12-29T09:45:00,sdl,15.24
2021-12-29T09:46:00,sdl,15.57
2021-12-29T09:47:00,sdl,15.66
2021-12-29T09:48:00,sdl,14.50
2021-12-29T09:49:00,sdl,14.78
2021-12-29T09:50:00,sdl,14.87
2021-12-29T09:51:00,sdl,14.79
2021-12-29T09:52:00,sdl,14.68
2021-12-29T09:53:00,sdl,18.55
2021-12-29T09:54:00,sdl,19.46
2021-12-29T09:55:00,sdl,17.92
2021-12-29T09:56:00,sdl,17.41
2021-12-29T09:57:00,sdl,17.38
2021-12-29T09:58:00,sdl,17.42
2021-12-29T09:59:00,sdl,17.51
2021-12-29T10:00:00,sdl,18.85
2021-12-29T10:01:00,sdl,17.21
2021-12-29T10:02:00,sdl,18.13
2021-12-29T10:03:00,sdl,17.28
2021-12-29T10:04:00,sdl,18.46
2021-12-29T10:05:00,sdl,15.15
2021-12-29T10:06:00,sdl,15.02
2021-12-29T10:07:00,sdl,15.29
2021-12-29T10:08:00,sdl,15.24
2021-12-29T10:09:00,sdl,19.10
2021-12-29T10:10:00,sdl,19.37
2021-12-29T10:11:00,sdl,19.11
2021-12-29T10:12:00,sdl,19.27
2021-12-29T10:13:00,sdl,19.72
2021-12-29T10:14:00,sdl,22.84
2021-12-29T10:15:00,sdl,19.52
2021-12-29T10:16:00,sdl,18.86
2021-12-29T10:17:00,sdl,19.90
2021-12-29T10:18:00,sdl,18.84
2021-12-29T10:19:00,sdl,16.30
2021-12-29T10:20:00,sdl,16.15
2021-12-29T10:21:00,sdl,18.53
2021-12-29T10:22:00,sdl,18.82
2021-12-29T10:23:00,sdl,18.49
2021-12-29T10:24:00,sdl,19.60
2021-12-29T10:25:00,sdl,19.63
2021-12-29T10:26:00,sdl,18.95
2021-12-29T10:27:00,sdl,19.00
2021-12-29T10:28:00,sdl,18.86
2021-12-29T10:29:00,sdl,18.17
2021-12-29T10:30:00,sdl,18.40
2021-12-29T10:31:00,sdl,18.70
2021-12-29T10:32:00,sdl,18.75
2021-12-29T10:33:00,sdl,18.53
2021-12-29T10:34:00,sdl,17.37
2021-12-29T10:35:00,sdl,30.54
2021-12-29T10:36:00,sdl,17.42
2021-12-29T10:37:00,sdl,18.18
2021-12-29T10:38:00,sdl,17.43
2021-12-29T10:39:00,sdl,19.42
2021-12-29T10:40:00,sdl,17.14
2021-12-29T10:41:00,sdl,15.58
2021-12-29T10:42:00,sdl,15.82
2021-12-29T10:43:00,sdl,14.89
2021-12-29T10:44:00,sdl,14.75
2021-12-29T10:45:00,sdl,14.70
2021-12-29T10:46:00,sdl,15.09
2021-12-29T10:47:00,sdl,16.63
2021-12-29T10:48:00,sdl,15.49
2021-12-29T10:49:00,sdl,15.17
2021-12-29T10:50:00,sdl,16.52
2021-12-29T10:51:00,sdl,15.27
2021-12-29T10:52:00,sdl,14.87
2021-12-29T10:53:00,sdl,14.89
2021-12-29T10:54:00,sdl,14.95
2021-12-29T10:55:00,sdl,16.14
2021-12-29T10:56:00,sdl,19.00
2021-12-29T10:57:00,sdl,19.00
2021-12-29T10:58:00,sdl,19.48
2021-12-29T10:59:00,sdl,19.34
2021-12-29T11:00:00,sdl,19.33
2021-12-29T11:01:00,sdl,20.25
2021-12-29T11:02:00,sdl,20.82
2021-12-29T11:03:00,sdl,20.29
2021-12-29T11:04:00,sdl,20.42
2021-12-29T11:05:00,sdl,29.39
2021-12-29T11:06:00,sdl,15.81
2021-12-29T11:07:00,sdl,15.84
2021-12-29T11:08:00,sdl,15.89
2021-12-29T11:09:00,sdl,19.43
2021-12-29T11:10:00,sdl,18.38
2021-12-29T11:11:00,sdl,18.51
2021-12-29T11:12:00,sdl,18.43
2021-12-29T11:13:00,sdl,18.18
2021-12-29T11:14:00,sdl,18.19
2021-12-29T11:15:00,sdl,18.39
2021-12-29T11:16:00,sdl,19.34
2021-12-29T11:17:00,sdl,18.85
2021-12-29T11:18:00,sdl,19.05
2021-12-29T11:19:00,sdl,19.15
2021-12-29T11:20:00,sdl,19.10
2021-12-29T11:21:00,sdl,19.72
2021-12-29T11:22:00,sdl,19.18
2021-12-29T11:23:00,sdl,19.55
2021-12-29T11:24:00,sdl,19.47
2021-12-29T11:25:00,sdl,19.48
2021-12-29T11:26:00,sdl,19.46
2021-12-29T11:27:00,sdl,19.40
2021-12-29T11:28:00,sdl,19.41
2021-12-29T11:29:00,sdl,20.29
2021-12-29T11:30:00,sdl,19.10
2021-12-29T11:31:00,sdl,19.72
2021-12-29T11:32:00,sdl,19.26
2021-12-29T11:33:00,sdl,19.19
2021-12-29T11:34:00,sdl,19.17
2021-12-29T11:35:00,sdl,20.08
2021-12-29T11:36:00,sdl,19.57
2021-12-29T11:37:00,sdl,20.33
2021-12-29T11:38:00,sdl,31.19
2021-12-29T11:39:00,sdl,33.26
2021-12-29T11:40:00,sdl,19.96
2021-12-29T11:41:00,sdl,19.37
2021-12-29T11:42:00,sdl,20.53
2021-12-29T11:43:00,sdl,19.05
2021-12-29T11:44:00,sdl,17.96
2021-12-29T11:45:00,sdl,17.86
2021-12-29T11:46:00,sdl,21.99
2021-12-29T11:47:00,sdl,21.99
2021-12-29T11:48:00,sdl,22.05
2021-12-29T11:49:00,sdl,22.43
2021-12-29T11:50:00,sdl,22.32
2021-12-29T11:51:00,sdl,22.33
2021-12-29T11:52:00,sdl,23.56
2021-12-29T11:53:00,sdl,22.30
2021-12-29T11:54:00,sdl,22.25
2021-12-29T11:55:00,sdl,18.16
2021-12-29T11:56:00,sdl,18.51
2021-12-29T11:57:00,sdl,17.96
2021-12-29T11:58:00,sdl,17.91
2021-12-29T11:59:00,sdl,17.93
2021-12-29T12:00:00,sdl,17.90
2021-12-29T12:01:00,sdl,18.00
2021-12-29T12:02:00,sdl,20.07
2021-12-29T12:03:00,sdl,18.39
2021-12-29T12:04:00,sdl,18.94
2021-12-29T12:05:00,sdl,18.36
2021-12-29T12:06:00,sdl,19.60
2021-12-29T12:07:00,sdl,18.79
2021-12-29T12:08:00,sdl,18.73
2021-12-29T12:09:00,sdl,18.07
2021-12-29T12:10:00,sdl,18.11
2021-12-29T12:11:00,sdl,18.14
2021-12-29T12:12:00,sdl,18.09
2021-12-29T12:13:00,sdl,18.16
2021-12-29T12:14:00,sdl,18.09
2021-12-29T12:15:00,sdl,19.54
2021-12-29T12:16:00,sdl,18.62
2021-12-29T12:17:00,sdl,18.66
2021-12-29T12:18:00,sdl,18.60
2021-12-29T12:19:00,sdl,18.62
2021-12-29T12:20:00,sdl,18.50
2021-12-29T12:21:00,sdl,18.40
2021-12-29T12:22:00,sdl,18.07
2021-12-29T12:23:00,sdl,18.02
2021-12-29T12:24:00,sdl,18.06
2021-12-29T12:25:00,sdl,18.04
2021-12-29T12:26:00,sdl,17.89
2021-12-29T12:27:00,sdl,17.88
2021-12-29T12:28:00,sdl,18.47
2021-12-29T12:29:00,sdl,18.52
2021-12-29T12:30:00,sdl,18.59
2021-12-29T12:31:00,sdl,16.34
2021-12-29T12:32:00,sdl,16.30
2021-12-29T12:33:00,sdl,16.26
2021-12-29T12:34:00,sdl,16.65
2021-12-29T12:35:00,sdl,16.19
2021-12-29T12:36:00,sdl,21.67
2021-12-29T12:37:00,sdl,19.93
2021-12-29T12:38:00,sdl,19.99
2021-12-29T12:39:00,sdl,20.05
2021-12-29T12:40:00,sdl,19.90
2021-12-29T12:41:00,sdl,20.28
2021-12-29T12:42:00,sdl,20.90
2021-12-29T12:43:00,sdl,22.43
2021-12-29T12:44:00,sdl,22.48
2021-12-29T12:45:00,sdl,18.48
2021-12-29T12:46:00,sdl,19.23
2021-12-29T12:47:00,sdl,18.87
2021-12-29T12:48:00,sdl,18.14
2021-12-29T12:49:00,sdl,19.14
2021-12-29T12:50:00,sdl,17.96
2021-12-29T12:51:00,sdl,18.07
2021-12-29T12:52:00,sdl,18.02
2021-12-29T12:53:00,sdl,18.03
2021-12-29T12:54:00,sdl,17.95
2021-12-29T12:55:00,sdl,18.02
2021-12-29T12:56:00,sdl,18.08
2021-12-29T12:57:00,sdl,18.10
2021-12-29T12:58:00,sdl,18.03
2021-12-29T12:59:00,sdl,18.09
2021-12-29T13:00:00,sdl,18.32
2021-12-29T13:01:00,sdl,18.37
2021-12-29T13:02:00,sdl,18.59
2021-12-29T13:03:00,sdl,19.45
2021-12-29T13:04:00,sdl,19.01
2021-12-29T13:05:00,sdl,18.88
2021-12-29T13:06:00,sdl,19.18
2021-12-29T13:07:00,sdl,18.66
2021-12-29T13:08:00,sdl,18.64
2021-12-29T13:09:00,sdl,18.68
2021-12-29T13:10:00,sdl,18.68
2021-12-29T13:11:00,sdl,18.64
2021-12-29T13:12:00,sdl,18.63
2021-12-29T13:13:00,sdl,18.23
2021-12-29T13:14:00,sdl,18.07
2021-12-29T13:15:00,sdl,18.09
2021-12-29T13:16:00,sdl,19.00
2021-12-29T13:17:00,sdl,18.87
2021-12-29T13:18:00,sdl,18.76